Lid_Strength_Index
3 3 4 3 3 3 3 3 2 2 2 2 2 2 2 2 2 2 2 2 2 3 3 2 2 2 4 6 5 0 -2 -1 1 4 6 6 6 6 9 10 10 11 9 8 7 6 6
3 3 3 4 4 3 3 2 3 2 2 2 3 3 3 3 3 3 3 2 2 3 3 2 2 2 4 8 1 -0 1 4 5 6 6 5 5 5 8 9 10 8 8 7 7 6 5
2 3 3 3 4 3 3 3 2 3 3 3 3 3 3 3 3 3 2 3 3 3 3 2 2 2 4 8 0 2 4 5 6 5 5 4 3 6 7 9 7 7 8 8 7 7 7
3 3 3 3 4 3 3 3 3 3 3 3 3 3 3 3 3 3 3 3 3 2 3 2 2 3 7 2 2 4 6 7 6 7 5 3 3 5 7 6 6 8 9 11 8 7 6
3 2 3 3 3 3 3 3 3 3 3 3 3 3 3 3 3 3 4 4 2 2 2 2 4 5 6 1 5 5 5 5 5 6 6 2 5 7 6 9 10 11 12 11 9 7 7
3 3 3 3 3 3 3 3 3 3 3 3 3 3 3 3 3 4 4 4 2 3 2 1 1 7 7 4 4 5 5 3 4 5 6 6 8 9 10 10 14 12 12 11 10 8 8
4 4 4 3 4 3 3 3 3 3 3 3 3 4 4 4 4 4 5 7 8 8 5 7 8 7 5 3 3 5 4 4 4 7 10 9 10 12 10 9 8 10 11 11 9 7 9
3 4 4 4 4 4 4 3 3 3 4 4 4 4 4 4 5 5 7 7 8 8 11 7 6 5 4 4 7 5 3 6 7 9 9 10 12 9 8 8 9 9 11 12 10 7 9
5 4 4 4 4 4 4 4 4 4 4 4 4 4 4 4 6 7 8 7 6 7 11 9 8 8 8 6 7 7 5 6 7 9 9 11 9 7 8 9 10 11 13 12 11 10 9
5 5 4 4 4 4 4 4 4 5 5 5 5 5 5 5 8 8 7 6 8 8 14 11 9 8 7 7 8 4 5 6 7 9 8 9 7 7 8 9 10 13 9 10 10 12 14
5 5 5 4 4 4 4 4 4 5 5 5 5 5 5 5 9 9 6 7 8 9 18 9 9 6 9 8 7 5 4 7 9 8 9 10 8 9 9 9 9 10 9 10 10 12 13
5 5 5 5 5 4 4 4 4 5 5 5 6 5 6 8 10 8 7 9 9 15 18 10 9 10 10 10 8 6 6 6 6 9 9 9 7 7 8 7 8 8 10 11 12 14 16
5 5 6 5 6 6 5 4 4 5 5 6 6 6 7 7 12 9 9 10 15 17 11 11 12 11 12 11 10 8 8 9 10 13 13 10 9 8 6 9 9 11 14 16 16 16 16
5 5 5 6 6 6 6 5 5 5 5 6 7 7 7 7 9 9 10 13 19 14 13 10 10 11 12 11 10 9 9 10 9 10 12 13 13 9 7 9 10 12 13 16 18 17 16
5 5 4 5 5 5 5 6 6 6 6 6 6 10 10 8 7 9 11 17 17 13 10 10 11 12 12 11 10 10 10 10 9 9 11 13 12 7 7 8 9 12 14 13 15 16 16
5 4 4 5 4 4 5 6 6 6 7 7 11 10 9 7 7 9 13 15 14 10 10 11 13 12 13 12 12 13 12 9 8 7 9 11 12 10 8 8 9 11 11 14 16 17 18
4 3 4 5 4 4 4 5 6 6 7 8 11 11 8 8 9 11 15 15 12 10 9 11 12 12 12 12 12 13 12 9 7 8 8 11 12 10 9 11 12 12 14 15 15 16 17
3 3 3 3 4 4 4 5 5 6 7 10 14 13 9 10 14 15 15 13 11 11 11 11 11 11 12 11 13 13 12 10 8 8 9 10 13 13 12 10 9 11 12 14 15 16 15
3 3 3 3 4 4 4 4 5 6 6 9 14 13 8 9 16 16 14 12 12 12 12 12 11 10 10 12 14 12 10 8 8 10 11 10 13 14 14 12 11 12 12 13 14 15 15
3 3 3 3 4 3 4 4 4 5 5 10 11 11 10 10 12 13 13 11 11 8 10 10 10 10 11 12 12 12 11 9 8 9 6 7 14 13 14 13 11 12 10 12 14 15 15
3 3 3 3 3 4 3 3 4 5 5 9 10 11 11 13 12 12 12 10 10 10 9 10 11 11 12 14 13 13 11 10 8 6 8 10 13 13 12 10 10 10 10 10 13 14 14
3 3 3 3 3 3 3 3 4 4 5 9 11 12 11 12 11 12 12 11 10 9 10 11 10 8 10 13 12 13 12 12 11 9 9 10 13 11 13 10 10 11 10 9 10 10 12
3 3 3 4 3 4 3 3 4 4 7 10 10 10 11 11 12 13 13 10 9 8 7 7 8 9 11 10 8 9 10 9 9 9 10 11 13 13 14 12 11 13 11 10 10 9 9
3 3 3 3 4 3 3 4 4 4 6 11 11 11 12 13 12 11 9 9 9 8 9 7 7 9 7 5 7 9 9 10 9 9 8 11 13 13 14 13 18 11 9 8 10 10 9
3 3 3 3 2 3 3 3 3 3 4 10 10 10 12 14 11 11 10 10 10 9 8 7 6 6 5 8 10 12 13 12 10 9 10 9 12 14 15 15 13 11 9 10 11 12 8
3 3 3 3 3 3 3 3 3 3 3 9 10 9 10 13 13 10 11 10 12 12 9 7 5 6 7 10 11 14 15 14 12 11 10 9 10 12 15 17 18 12 9 8 8 14 8
3 3 3 3 3 4 3 3 3 3 3 8 10 9 11 13 12 11 11 12 10 10 10 8 8 8 7 12 13 14 13 11 13 13 13 12 13 14 15 16 13 10 9 8 14 13 9
3 3 3 3 4 4 4 4 4 4 4 7 9 9 10 13 12 10 8 10 10 10 11 9 9 9 10 13 12 13 13 12 13 14 16 13 14 14 14 16 17 8 9 12 10 8 8
3 4 3 3 4 4 4 4 4 4 4 6 11 8 8 12 12 10 8 8 8 8 10 11 8 9 9 11 11 11 13 12 14 16 11 15 12 14 13 13 9 7 8 8 7 8 8